{"data":{"norad_id":45671,"intl_designator":"2020-035Q","name":"STARLINK-1454","alt_names":[],"object_type":"PAYLOAD","status":"ACTIVE","operator":null,"country":"US","launch_date":"2020-06-04","launch_site_code":"AFETR","launch_vehicle":null,"mission":null,"orbit_class":"UNKNOWN","rcs_meters":null,"size_class":null,"mass_kg":null,"dimensions":null,"purposes":["comms"],"wikipedia_slug":null,"has_3d_model":false,"image_url":null,"decayed_at":null,"tle_current":{"epoch":"2026-05-25T02:58:12.780192Z","epoch_age_seconds":60470,"freshness":"FRESH","line1":"1 45671U 20035Q   26145.12375903  .00051059  00000+0  51301-3 0  9993","line2":"2 45671  53.0438  41.3281 0002957  46.7954 313.3307 15.64978762330837","mean_motion":15.64978762,"eccentricity":0.0002957,"inclination_deg":53.0438,"raan_deg":41.3281,"arg_perigee_deg":46.7954,"mean_anomaly_deg":313.3307,"bstar":0.00051301,"rev_number":33083,"period_min":92.014028238934,"perigee_km":371.30344042676,"apogee_km":375.29624017411,"semimajor_km":6751.4368403004,"source":"CELESTRAK","updated_at":"2026-05-25T13:38:16.427611Z"}}}